Regional Weather Roundup
Issued by NWS

Home | Current Version | Previous Version | Text Only | Print | Product List | Glossary On
Versions: 1 2 3 4 5 6 7 8 9 10 11 12 13 14 15 16 17 18 19 20 21 22 23 24 25 26 27 28 29 30 31 32 33 34 35 36 37 38 39 40 41 42 43 44 45 46 47 48 49 50
000
ASUS43 KMKX 271621
RWRWI

WISCONSIN REGIONAL WEATHER ROUNDUP
NATIONAL WEATHER SERVICE MILWAUKEE/SULLIVAN WI
1100 AM CDT SAT MAY 27 2017

NOTE: "FAIR" INDICATES FEW OR NO CLOUDS BELOW 12,000 FEET WITH NO
SIGNIFICANT WEATHER AND/OR OBSTRUCTIONS TO VISIBILITY.

WIZ001-002-006>008-014>016-023>028-271700-
NORTHWEST WISCONSIN

CITY           SKY/WX    TMP DP  RH WIND       PRES   REMARKS
SUPERIOR ARPT  NOT AVBL
ASHLAND        MOSUNNY   70  48  45 W9        29.85R
HAYWARD        MOSUNNY   68  45  43 VRB6      29.87F
SIREN          MOSUNNY   69  46  44 NW10      29.88S
CUMBERLAND     PTSUNNY   64  43  45 W9        29.88F
RICE LAKE      SUNNY     68  46  45 W9        29.90S
CHETEK         MOSUNNY   68  48  48 N7        29.88F
LADYSMITH      PTSUNNY   67  52  58 NW8       29.89F
EAU CLAIRE     SUNNY     70  47  43 NW8       29.88S
MENOMONIE      SUNNY     70  48  46 W8        29.90R
NEW RICHMOND   CLOUDY    69  43  38 NW10      29.89S
OSCEOLA        MOSUNNY   70  47  43 W7        29.91S
$$

WIZ003>005-009-010-017-018-271700-
NORTH CENTRAL WISCONSIN

CITY           SKY/WX    TMP DP  RH WIND       PRES   REMARKS
MANITOWISH WTR MOSUNNY   68  49  51 SW6       29.85S
ARBOR VITAE    MOSUNNY   68  51  54 W7        29.85S
WOODRUFF       MOSUNNY   68  51  54 W7        29.85S
RHINELANDER    SUNNY     70  54  56 SW9       29.87S
EAGLE RIVER    MOSUNNY   69  47  45 SW9       29.84F
LAND O LAKES   PTSUNNY   69  45  41 W8        29.86F
PHILLIPS       PTSUNNY   67  53  61 W9        29.86F
TOMAHAWK       MOSUNNY   68  49  49 SW6       29.86F
MEDFORD        SUNNY     67  49  51 W10       29.88S
MERRILL        SUNNY     69  55  62 SW8       29.87F
$$

WIZ029-030-035-036-043>047-271700-
CENTRAL WISCONSIN

CITY           SKY/WX    TMP DP  RH WIND       PRES   REMARKS
WAUSAU         SUNNY     71  49  45 NW9       29.86S
MOSINEE        MOSUNNY   70  54  56 SW7       29.89S
MARSHFIELD     SUNNY     69  53  56 W8        29.87S
STEVENS POINT  SUNNY     71  51  50 NW6       29.88S
WAUPACA        MOSUNNY   73  58  59 S9        29.88F
WAUTOMA        PTSUNNY   70  59  68 S8        29.89S
WISC RAPIDS    MOSUNNY   71  56  58 VRB3      29.89S
CAMP DOUGLAS   SUNNY     72  57  58 CALM      29.88S
$$

WIZ011>013-019>022-031-037>040-048>050-271700-
NORTHEAST WISCONSIN

CITY           SKY/WX    TMP DP  RH WIND       PRES   REMARKS
ANTIGO         MOSUNNY   68  58  71 W6        29.88S
SHAWANO        MOSUNNY   73  56  56 SW9       29.88S
OCONTO         MOSUNNY   70  56  62 S8        29.87R
STURGEON BAY   SUNNY     70  54  56 S10       29.88S
GREEN BAY      SUNNY     70  57  63 S12       29.88R
MANITOWOC      SUNNY     67  53  61 S10       29.90S
APPLETON       MOSUNNY   68  52  56 SW7       29.88R
CLINTONVILLE   CLOUDY    70  55  60 SW9G16    29.88S
OSHKOSH        SUNNY     70  55  59 SW8       29.89R
$$

WIZ032>034-041-042-053>061-271700-
SOUTHWEST WISCONSIN

CITY           SKY/WX    TMP DP  RH WIND       PRES   REMARKS
LA CROSSE      SUNNY     72  60  66 SW3       29.89R
SPARTA         SUNNY     71  58  64 W7        29.90R
VIROQUA        SUNNY     68  58  70 SW6       29.92R
BOSCOBEL       CLOUDY    66  59  78 W7        29.92S
PRAIRIE DU CHI CLOUDY    64  58  79 CALM      29.91F
PLATTEVILLE    CLOUDY    65  62  90 SW5       29.94S
$$

WIZ056-057-062-063-064-067-068-271700-
SOUTH CENTRAL WISCONSIN

CITY           SKY/WX    TMP DP  RH WIND       PRES   REMARKS
REEDSBURG      CLOUDY    63  61  91 SW7       29.91S
BARABOO/DELLS  PTSUNNY   64  58  80 W8        29.92R
LONE ROCK      CLOUDY    63  58  83 SW5       29.92R HAZE
MINERAL POINT  CLOUDY    64  61  88 SW5       29.94R
MADISON        MOSUNNY   66  57  72 S9        29.91S
MIDDLETON      CLOUDY    68  59  72 SW7       29.92R
WATERTOWN      MOSUNNY   68  58  71 S8        29.91R
MONROE         PTSUNNY   64  57  77 S7        29.93S
JANESVILLE     PTSUNNY   68  57  68 S8        29.92S
$$

WIZ051-052-058>065-066-070>072-271700-
SOUTHEAST WISCONSIN

CITY           SKY/WX    TMP DP  RH WIND       PRES   REMARKS
MILWAUKEE      MOSUNNY   68  54  60 SE8       29.92F
WAUKESHA       MOSUNNY   64  55  72 E8        29.92F
MILWAUKEE/TIMM SUNNY     68  50  52 CALM      29.92S
RACINE         MOSUNNY   66  53  63 S7        29.94S
KENOSHA        SUNNY     67  53  61 E8        29.92F
FOND DU LAC    SUNNY     70  54  56 VRB7      29.89S
SHEBOYGAN      SUNNY     69  56  62 SE10      29.89F
WEST BEND      SUNNY     68  55  64 SE7       29.90S
JUNEAU         MOSUNNY   66  56  71 S10       29.91S
$$

LSZ147-162-271700-
LAKE SUPERIOR

STATION/POSITION TIME  TEMP    WIND        PRES    WAVE
                       AIR SEA DIR/SP/G            HT/PER
                 (UTC) (F)     (DEG/KT/KT) (MB)    (FT/S)
W MID LAKE BUOY  1550   42 37  270/  8/ 10 1010.6R   0
DEVILS ISLAND    1600   50     240/ 12/ 13 1010.7F
SAXON HARBOR     1540   64      50/  4/  5 1010.8R
$$

LMZ867-665-643>646-271700-
LAKE MICHIGAN

STATION/POSITION TIME  TEMP    WIND        PRES    WAVE
                       AIR SEA DIR/SP/G            HT/PER
                 (UTC) (F)     (DEG/KT/KT) (MB)    (FT/S)
CHAMBERS ISLAND  1540   65     160/  2/  8 1011.2S
N MID LAKE BUOY  1550   45 42  190/  8/ 10 1012.9F   0
NORTHPORT PIER   1540   58     140/  8/ 10 1011.5S
KEWAUNEE LAKESHO 1554   53     180/  7/  8 1011.9S
SHEBOYGAN LAKESH 1600   51     170/ 12/ 13 1012.5S
PORT WASHINGTON  1540   59     180/  6/  8 1013.9S
ATWATER BUOY     1509   50     160/  6/  6 1013.4R
MILWAUKEE LAKESH 1600   54     120/  5/  5   N/A
S MID LAKE BUOY  1550   51 50  260/  2/  2 1013.7S   0
KENOSHA   LAKESH 1600   57     170/  4/  4 1013.2
$$

TC  - TEMPERATURE IN CELSIUS
VSB - VISIBILITY IN STATUTE MILES
WCI - WIND CHILL INDEX
HX  - HEAT INDEX





USA.gov is the U.S. government's official web portal to all federal, state and local government web resources and services.